Ponca City, OK

12:35 AM CST on January 23, 2018 (GMT -0600)
Ponca City Municipal

Weather History for KPNC - August, 2013

Change the Weather History Date:

Tuesday, August 20, 2013

  Actual Average Record
Temperature  
Mean Temperature 80 °F -  
Max Temperature 90 °F 96 °F 105 °F (2001)
Min Temperature 70 °F 68 °F 50 °F (1950)
Cooling Degree Days 15    
Growing Degree Days 30 (Base 50)    
Moisture  
Dew Point 64 °F    
Average Humidity 61    
Maximum Humidity 76    
Minimum Humidity 43    
Precipitation  
Precipitation 0.00 in - - ()
Sea Level Pressure  
Sea Level Pressure 29.99 in    
Wind  
Wind Speed 8 mph (SSE)    
Max Wind Speed 12 mph    
Max Gust Speed 17 mph    
Visibility 10 miles    
Events      
Averages and records for this station are not official NWS values.
T = Trace of Precipitation, MM = Missing Value Source: NWS Daily Summary

Daily Weather History Graph

Daily Weather History Graph

Search for Another Location

Airport or City:

Trip Planner

Search our weather history database for the weather conditions in past years. The results will help you decide how hot, cold, wet, or windy it might be!

Date:

Astronomy

Aug. 20, 2013 Rise Set
Actual Time 6:49 AM CDT 8:12 PM CDT
Civil Twilight 6:22 AM CDT 8:39 PM CDT
Nautical Twilight 5:50 AM CDT 9:12 PM CDT
Astronomical Twilight 5:16 AM CDT 9:46 PM CDT
Moon 7:46 PM CDT (8/20) 6:20 AM CDT (8/20)
Length of Visible Light 14h 17m
Length of Day
13h 22m
Full, 100% of the Moon is Illuminated
Aug 20
Full
Aug 20
Full
Aug 28
Last Quarter
Sep 5
New
Sep 12
First Quarter

Hourly Weather History & Observations

Time (CDT) Temp. Heat Index Dew Point Humidity Pressure Visibility Wind Dir Wind Speed Gust Speed Precip Events Conditions
12:53 AM 73.9 °F - 64.9 °F 73% 30.00 in 10.0 mi SSE 8.1 mph - N/A   Clear
1:53 AM 72.0 °F - 64.0 °F 76% 29.99 in 10.0 mi SSE 8.1 mph - N/A   Clear
2:53 AM 72.0 °F - 63.0 °F 73% 29.98 in 10.0 mi SSE 9.2 mph - N/A   Clear
3:53 AM 71.1 °F - 63.0 °F 75% 29.98 in 10.0 mi SSE 6.9 mph - N/A   Clear
4:53 AM 70.0 °F - 62.1 °F 76% 29.98 in 10.0 mi SE 8.1 mph - N/A   Clear
5:53 AM 70.0 °F - 62.1 °F 76% 29.99 in 10.0 mi SE 8.1 mph - N/A   Clear
6:53 AM 71.1 °F - 61.0 °F 70% 30.00 in 10.0 mi SSE 10.4 mph - N/A   Clear
7:53 AM 73.0 °F - 62.1 °F 68% 30.02 in 10.0 mi SSE 8.1 mph 16.1 mph N/A   Clear
8:53 AM 75.0 °F - 63.0 °F 66% 30.04 in 10.0 mi South 8.1 mph - N/A   Clear
9:53 AM 78.1 °F - 64.0 °F 62% 30.03 in 10.0 mi South 6.9 mph 16.1 mph N/A   Clear
10:53 AM 82.0 °F 83.8 °F 64.9 °F 56% 30.03 in 10.0 mi South 6.9 mph - N/A   Clear
11:53 AM 84.9 °F 86.6 °F 64.9 °F 51% 30.02 in 10.0 mi South 5.8 mph - N/A   Clear
12:53 PM 86.0 °F 88.8 °F 66.9 °F 53% 30.00 in 10.0 mi South 8.1 mph - N/A   Clear
1:53 PM 88.0 °F 90.3 °F 66.0 °F 48% 29.99 in 10.0 mi SSE 6.9 mph - N/A   Clear
2:53 PM 90.0 °F 91.7 °F 64.9 °F 43% 29.97 in 10.0 mi South 8.1 mph 17.3 mph N/A   Clear
3:53 PM 90.0 °F 91.7 °F 64.9 °F 43% 29.96 in 10.0 mi SSE 11.5 mph 17.3 mph N/A   Clear
4:53 PM 89.1 °F 91.0 °F 64.9 °F 45% 29.95 in 10.0 mi SSE 11.5 mph - N/A   Clear
5:53 PM 88.0 °F 89.3 °F 64.0 °F 45% 29.95 in 10.0 mi SSE 11.5 mph - N/A   Clear
6:53 PM 86.0 °F 88.2 °F 66.0 °F 51% 29.95 in 10.0 mi SE 10.4 mph - N/A   Clear
7:53 PM 82.9 °F 84.6 °F 64.9 °F 54% 29.95 in 10.0 mi SSE 9.2 mph - N/A   Clear
8:53 PM 80.1 °F 82.1 °F 66.0 °F 62% 29.96 in 10.0 mi SE 8.1 mph - N/A   Clear
9:53 PM 77.0 °F - 66.0 °F 69% 29.98 in 10.0 mi SE 8.1 mph - N/A   Clear
10:53 PM 75.9 °F - 66.0 °F 71% 29.99 in 10.0 mi SE 8.1 mph - N/A   Clear
11:53 PM 75.9 °F - 64.9 °F 69% 29.99 in 10.0 mi SE 9.2 mph - N/A   Clear